Pinawa, Manitoba

8:29 AM CDT on April 26, 2017 (GMT -0500)
Pinawa

Weather History for CWEA - August, 2013

Change the Weather History Date:

Saturday, August 24, 2013

  Actual Average Record
Temperature  
Mean Temperature 77 °F -  
Max Temperature 88 °F - - ()
Min Temperature 66 °F - - ()
Cooling Degree Days 12    
Growing Degree Days 27 (Base 50)    
Moisture  
Dew Point 65 °F    
Average Humidity 73    
Maximum Humidity 92    
Minimum Humidity 57    
Precipitation  
Precipitation 0.01 in - - ()
Sea Level Pressure  
Sea Level Pressure 29.77 in    
Wind  
Wind Speed 4 mph ()    
Max Wind Speed 7 mph    
Max Gust Speed -    
T = Trace of Precipitation, MM = Missing Value Source: Averaged Metar Reports

Daily Weather History Graph

Daily Weather History Graph

Search for Another Location

Airport or City:

Trip Planner

Search our weather history database for the weather conditions in past years. The results will help you decide how hot, cold, wet, or windy it might be!

Date:

Astronomy

Aug. 24, 2013 Rise Set
Actual Time 6:27 AM CDT 8:24 PM CDT
Civil Twilight 5:52 AM CDT 8:59 PM CDT
Nautical Twilight 5:09 AM CDT 9:42 PM CDT
Astronomical Twilight 4:20 AM CDT 10:30 PM CDT
Moon 9:46 PM CDT (8/24) 10:59 AM CDT (8/24)
Length of Visible Light 15h 06m
Length of Day
13h 57m
Waning Gibbous, 84% of the Moon is Illuminated
Aug 24
Waning Gibbous
Aug 28
Last Quarter
Sep 5
New
Sep 12
First Quarter
Sep 19
Full

Hourly Weather History & Observations

Time (CDT) Temp. Heat Index Dew Point Humidity Pressure Visibility Wind Dir Wind Speed Gust Speed Precip Events Conditions
12:00 AM 67.6 °F - 56.5 °F 67% 29.90 in - SE 3.5 mph - N/A   Unknown
1:00 AM 68 °F - 58 °F 63% 29.89 in - SE 4.6 mph - -  
1:00 AM 68.2 °F - 58.3 °F 71% 29.89 in - SE 4.6 mph - N/A   Unknown
2:00 AM 70.0 °F - 58.3 °F 66% 29.88 in - SSE 5.8 mph - N/A   Unknown
3:00 AM 70.2 °F - 58.1 °F 65% 29.87 in - SE 4.6 mph - N/A   Unknown
4:00 AM 69.4 °F - 58.8 °F 69% 29.86 in - SSE 5.8 mph - N/A   Unknown
5:00 AM 68.2 °F - 59.9 °F 75% 29.84 in - SE 4.6 mph - N/A   Unknown
6:00 AM 68.4 °F - 61.3 °F 78% 29.83 in - SSE 5.8 mph - N/A   Unknown
7:00 AM 68 °F - 63 °F 78% 29.83 in - SSE 3.5 mph - -  
7:00 AM 68.4 °F - 62.6 °F 82% 29.83 in - SSE 4.6 mph - N/A   Unknown
8:00 AM 69.8 °F - 64.2 °F 82% 29.80 in - SSE 4.6 mph - N/A   Unknown
9:00 AM 73.0 °F - 66.2 °F 79% 29.79 in - SSE 4.6 mph - N/A   Unknown
10:00 AM 76.5 °F - 67.8 °F 75% 29.77 in - South 5.8 mph - N/A   Unknown
11:00 AM 77.7 °F - 68.7 °F 74% 29.77 in - SSE 6.9 mph - N/A   Unknown
12:00 PM 79.0 °F - 69.1 °F 72% 29.75 in - SSE 5.8 mph - N/A   Unknown
1:00 PM 82 °F - 70 °F 59% 29.73 in - SSE 5.8 mph - -  
1:00 PM 82.4 °F 86.3 °F 70.2 °F 66% 29.73 in - SSE 4.6 mph - N/A   Unknown
2:00 PM 84.9 °F 89.4 °F 70.2 °F 61% 29.72 in - SSE 6.9 mph - N/A   Unknown
3:00 PM 87.3 °F 92.4 °F 70.2 °F 57% 29.70 in - South 4.6 mph - N/A   Unknown
4:00 PM 86.5 °F 91.0 °F 69.4 °F 57% 29.69 in - South 6.9 mph - N/A   Unknown
5:00 PM 84.4 °F 89.4 °F 71.1 °F 64% 29.67 in - SSW 2.3 mph - N/A   Unknown
6:00 PM 82.8 °F 87.7 °F 71.6 °F 69% 29.67 in - South 3.5 mph - N/A   Unknown
7:00 PM 78 °F - 72 °F 76% 29.68 in - SW 5.8 mph - -  
7:00 PM 77.7 °F - 71.8 °F 82% 29.68 in - SW 6.9 mph - N/A   Unknown
8:00 PM 72.1 °F - 67.3 °F 85% 29.67 in - SSW 4.6 mph - 0.01 in   Unknown
9:00 PM 69.8 °F - 66.6 °F 89% 29.69 in - SSE 3.5 mph - N/A   Unknown
10:00 PM 68.9 °F - 66.4 °F 92% 29.72 in - SE 4.6 mph - N/A   Unknown
11:00 PM 69.3 °F - 66.0 °F 89% 29.73 in - SE 3.5 mph - N/A   Unknown